sat.trackr.live / text

‹ back to catalog

STARLINK-36530

NORAD 67514 · 2026-012X

PAYLOAD ACTIVE UNKNOWN

§ Identity

Operator
Country
US
Launch date
2026-01-18
Launch site
AFETR
Launch vehicle
Mass (kg)
RCS (m²)

Purposes: comms

External: N2YO · Heavens-Above · Gunter

§ Orbital elements

Epoch: 2026-09-19T10:40:54.841152Z

Period
94.27 min
Inclination
43.0083°
Eccentricity
0.0004859
Mean motion
15.27573277 rev/d
Perigee alt
479.7 km
Apogee alt
486.4 km
Semi-major
6,861.2 km
B*
3.8708e-4
RAAN
300.2326°
Arg perigee
288.2578°
Mean anomaly
71.7744°
Rev number
3,739

§ Raw data

STARLINK-365301 67514U 26012X   26262.44507918  .00010404  00000+0  38708-3 0  99972 67514  43.0083 300.2326 0004859 288.2578  71.7744 15.27573277 37393

JSON: /api/v1/satellites/67514 · /tle

For live sub-satellite position, see the globe view (requires WebGL).

§ Visibility from observer

Set your observer location to see the next 7 days of passes ≥ 10°. The values pass through the URL so the page stays shareable.

No JS? Fill the form by hand. The geolocation button needs JavaScript.